User: anonymous   Login
Location: Asheville, NC
(35.6000°N, 82.5500°W)
Time: 08:34:33
(UTC-04:00)
Language:

XW-2A - Orbit

View from above orbital plane
View from above orbital plane
View from above satellite
View from above satellite

Ground track
Ground track

The orbit data is extracted from the following two-line orbital elements,

1 40903U 15049E   18114.12969647  .00002017  00000-0  52104-4 0  9990
2 40903  97.3901 148.4375 0013100 219.6627 140.3662 15.40287482145482
Epoch (UTC): 24 April 2018 03:06:45
Eccentricity: 0.0013100
inclination: 97.3901°
perigee height: 436 km
apogee height: 454 km
right ascension of ascending node: 148.4375°
argument of perigee: 219.6627°
revolutions per day: 15.40287482
mean anomaly at epoch: 140.3662°
orbit number at epoch: 14548

The dashed part of the orbit path shows where the satellite is in the earth's shadow,  

DLR